Time,TemperatureF,DewpointF,PressureIn,WindDirection,WindDirectionDegrees,WindSpeedMPH,WindSpeedGustMPH,Humidity,HourlyPrecipIn,Conditions,Clouds,dailyrainin,SolarRadiationWatts/m^2,SoftwareType,DateUTC
2013-06-24 00:03:00,53.0,53.0,29.85,North,-999,0.0,0.0,99,-99.99,,,-99.99,0.000000,,2013-06-24 07:03:00,
2013-06-24 00:13:00,53.0,53.0,29.85,North,-999,0.0,0.0,99,-99.99,,,-99.99,0.000000,,2013-06-24 07:13:00,
2013-06-24 00:53:00,53.0,53.0,29.85,North,-999,0.0,0.0,99,-99.99,,,-99.99,0.000000,,2013-06-24 07:53:00,
2013-06-24 01:03:00,53.0,53.0,29.85,North,-999,0.0,0.0,99,-99.99,,,-99.99,0.000000,,2013-06-24 08:03:00,
2013-06-24 01:13:00,53.0,53.0,29.85,North,-999,0.0,0.0,99,-99.99,,,-99.99,0.000000,,2013-06-24 08:13:00,
2013-06-24 01:24:00,53.0,53.0,29.85,North,-999,0.0,0.0,99,-99.99,,,-99.99,0.000000,,2013-06-24 08:24:00,
2013-06-24 01:34:00,53.0,53.0,29.85,North,-999,0.0,0.0,99,-99.99,,,-99.99,0.000000,,2013-06-24 08:34:00,
2013-06-24 01:45:00,53.0,53.0,29.85,North,-999,0.0,0.0,99,-99.99,,,-99.99,0.000000,,2013-06-24 08:45:00,
2013-06-24 01:52:00,53.0,53.0,29.84,North,-999,0.0,0.0,99,-99.99,,,-99.99,0.000000,,2013-06-24 08:52:00,
2013-06-24 02:04:00,53.0,53.0,29.85,North,-999,0.0,0.0,99,-99.99,,,-99.99,0.000000,,2013-06-24 09:04:00,
2013-06-24 02:14:00,53.0,53.0,29.85,North,-999,0.0,0.0,99,-99.99,,,-99.99,0.000000,,2013-06-24 09:14:00,
2013-06-24 02:25:00,53.0,53.0,29.84,North,-999,0.0,0.0,99,-99.99,,,-99.99,0.000000,,2013-06-24 09:25:00,
2013-06-24 02:35:00,53.0,53.0,29.84,North,-999,0.0,0.0,99,-99.99,,,-99.99,0.000000,,2013-06-24 09:35:00,
2013-06-24 03:02:00,52.0,52.0,29.83,North,-999,0.0,0.0,99,-99.99,,,-99.99,0.000000,,2013-06-24 10:02:00,
2013-06-24 03:13:00,52.0,52.0,29.83,North,-999,0.0,0.0,99,-99.99,,,-99.99,0.000000,,2013-06-24 10:13:00,
2013-06-24 03:54:00,52.0,52.0,29.82,SE,133,0.0,0.0,99,-99.99,,,-99.99,0.000000,,2013-06-24 10:54:00,
2013-06-24 04:02:00,52.0,52.0,29.82,ESE,123,0.0,0.0,99,-99.99,,,-99.99,0.000000,,2013-06-24 11:02:00,
2013-06-24 04:10:00,52.0,52.0,29.82,SE,126,0.0,0.0,99,-99.99,,,-99.99,0.000000,,2013-06-24 11:10:00,
2013-06-24 04:14:00,52.0,52.0,29.82,ESE,123,0.0,0.0,99,-99.99,,,-99.99,0.000000,,2013-06-24 11:14:00,
2013-06-24 04:26:00,52.0,52.0,29.82,ESE,123,0.0,0.0,99,-99.99,,,-99.99,0.000000,,2013-06-24 11:26:00,
2013-06-24 04:34:00,52.0,52.0,29.82,SE,124,0.0,0.0,99,-99.99,,,-99.99,0.000000,,2013-06-24 11:34:00,
2013-06-24 04:40:00,52.0,52.0,29.83,SE,127,0.0,0.0,99,-99.99,,,-99.99,0.000000,,2013-06-24 11:40:00,
2013-06-24 04:54:00,52.0,52.0,29.82,SE,125,0.0,0.0,99,-99.99,,,-99.99,0.000000,,2013-06-24 11:54:00,
2013-06-24 05:03:00,52.0,52.0,29.82,SE,126,0.0,0.0,99,-99.99,,,-99.99,0.000000,,2013-06-24 12:03:00,
2013-06-24 05:20:00,53.0,53.0,29.83,SE,131,0.0,0.0,99,-99.99,,,-99.99,0.000000,,2013-06-24 12:20:00,
2013-06-24 05:23:00,52.0,52.0,29.82,SE,126,0.0,0.0,99,-99.99,,,-99.99,0.000000,,2013-06-24 12:23:00,
2013-06-24 05:36:00,52.0,52.0,29.83,SE,127,0.0,0.0,99,-99.99,,,-99.99,0.000000,,2013-06-24 12:36:00,
2013-06-24 05:50:00,52.0,52.0,29.84,SE,124,0.0,0.0,99,-99.99,,,-99.99,0.000000,,2013-06-24 12:50:00,
2013-06-24 05:53:00,53.0,53.0,29.83,SE,128,0.0,0.0,99,-99.99,,,-99.99,0.000000,,2013-06-24 12:53:00,
2013-06-24 06:30:00,53.0,53.0,29.85,SE,129,0.0,0.0,99,-99.99,,,-99.99,2.000000,,2013-06-24 13:30:00,
2013-06-24 07:00:00,53.0,53.0,29.85,SE,131,0.0,0.0,99,-99.99,,,-99.99,4.000000,,2013-06-24 14:00:00,
2013-06-24 07:44:00,53.0,53.0,29.85,SE,131,0.0,0.0,99,-99.99,,,-99.99,3.000000,,2013-06-24 14:44:00,
2013-06-24 07:54:00,53.0,53.0,29.85,SE,131,0.0,0.0,99,-99.99,,,-99.99,4.000000,,2013-06-24 14:54:00,
2013-06-24 08:12:00,53.0,53.0,29.85,SE,131,0.0,0.0,99,-99.99,,,-99.99,10.000000,,2013-06-24 15:12:00,
2013-06-24 08:25:00,53.0,53.0,29.85,SE,131,0.0,0.0,99,-99.99,,,-99.99,15.000000,,2013-06-24 15:25:00,
2013-06-24 08:34:00,53.0,53.0,29.85,SE,132,0.0,0.0,99,-99.99,,,-99.99,16.000000,,2013-06-24 15:34:00,
2013-06-24 08:45:00,53.0,53.0,29.85,SE,132,0.0,0.0,99,-99.99,,,-99.99,16.000000,,2013-06-24 15:45:00,
2013-06-24 08:54:00,53.0,53.0,29.86,SE,124,0.0,0.0,99,-99.99,,,-99.99,13.000000,,2013-06-24 15:54:00,
2013-06-24 09:00:00,52.0,52.0,29.86,SE,128,0.0,0.0,99,-99.99,,,-99.99,24.000000,,2013-06-24 16:00:00,
2013-06-24 09:03:00,52.0,52.0,29.86,SE,125,0.0,0.0,99,-99.99,,,-99.99,17.000000,,2013-06-24 16:03:00,
2013-06-24 09:12:00,52.0,52.0,29.86,SE,125,0.0,0.0,99,-99.99,,,-99.99,26.000000,,2013-06-24 16:12:00,
2013-06-24 09:23:00,53.0,53.0,29.87,SE,126,0.0,0.0,99,-99.99,,,-99.99,32.000000,,2013-06-24 16:23:00,
2013-06-24 09:50:00,52.0,52.0,29.89,SE,133,0.0,0.0,99,-99.99,,,-99.99,35.000000,,2013-06-24 16:50:00,
2013-06-24 09:54:00,52.0,52.0,29.86,SE,128,0.0,0.0,99,-99.99,,,-99.99,24.000000,,2013-06-24 16:54:00,
2013-06-24 10:34:00,51.0,51.0,29.89,SE,132,0.0,0.0,99,-99.99,,,-99.99,33.000000,,2013-06-24 17:34:00,
2013-06-24 10:44:00,52.0,52.0,29.89,SE,133,0.0,0.0,99,-99.99,,,-99.99,35.000000,,2013-06-24 17:44:00,
2013-06-24 11:02:00,52.0,52.0,29.89,SE,126,0.0,0.0,99,-99.99,,,-99.99,35.000000,,2013-06-24 18:02:00,
2013-06-24 11:14:00,52.0,52.0,29.90,SE,127,0.0,0.0,99,-99.99,,,-99.99,39.000000,,2013-06-24 18:14:00,
2013-06-24 11:30:00,52.0,52.0,29.90,SE,133,0.0,0.0,99,-99.99,,,-99.99,38.000000,,2013-06-24 18:30:00,
2013-06-24 11:34:00,51.0,51.0,29.90,SE,128,0.0,0.0,99,-99.99,,,-99.99,28.000000,,2013-06-24 18:34:00,
2013-06-24 11:45:00,52.0,52.0,29.90,SE,129,0.0,0.0,99,-99.99,,,-99.99,34.000000,,2013-06-24 18:45:00,
2013-06-24 12:04:00,52.0,52.0,29.90,SE,130,0.0,0.0,99,-99.99,,,-99.99,36.000000,,2013-06-24 19:04:00,
2013-06-24 12:13:00,52.0,52.0,29.90,SE,131,0.0,0.0,99,-99.99,,,-99.99,36.000000,,2013-06-24 19:13:00,
2013-06-24 12:20:00,52.0,52.0,29.91,SE,130,0.0,0.0,99,-99.99,,,-99.99,33.000000,,2013-06-24 19:20:00,
2013-06-24 12:24:00,52.0,52.0,29.90,SE,133,0.0,0.0,99,-99.99,,,-99.99,38.000000,,2013-06-24 19:24:00,
2013-06-24 12:50:00,51.0,51.0,29.90,SE,131,0.0,0.0,99,-99.99,,,-99.99,24.000000,,2013-06-24 19:50:00,
2013-06-24 12:54:00,52.0,52.0,29.91,SE,128,0.0,0.0,99,-99.99,,,-99.99,30.000000,,2013-06-24 19:54:00,
2013-06-24 13:03:00,52.0,52.0,29.91,SE,129,0.0,0.0,99,-99.99,,,-99.99,37.000000,,2013-06-24 20:03:00,
2013-06-24 13:12:00,52.0,52.0,29.91,SE,130,0.0,0.0,99,-99.99,,,-99.99,33.000000,,2013-06-24 20:12:00,
2013-06-24 13:50:00,52.0,52.0,29.91,SE,128,0.0,0.0,99,-99.99,,,-99.99,27.000000,,2013-06-24 20:50:00,
2013-06-24 14:03:00,52.0,52.0,29.90,SE,133,0.0,0.0,99,-99.99,,,-99.99,34.000000,,2013-06-24 21:03:00,
2013-06-24 14:10:00,51.0,51.0,29.90,SE,130,0.0,0.0,99,-99.99,,,-99.99,33.000000,,2013-06-24 21:10:00,
2013-06-24 14:12:00,52.0,52.0,29.90,SE,124,0.0,0.0,99,-99.99,,,-99.99,26.000000,,2013-06-24 21:12:00,
2013-06-24 14:23:00,52.0,52.0,29.90,SE,125,0.0,0.0,99,-99.99,,,-99.99,36.000000,,2013-06-24 21:23:00,
2013-06-24 14:40:00,52.0,52.0,29.89,SE,131,0.0,0.0,99,-99.99,,,-99.99,35.000000,,2013-06-24 21:40:00,
2013-06-24 15:04:00,51.0,51.0,29.90,SE,130,0.0,0.0,99,-99.99,,,-99.99,33.000000,,2013-06-24 22:04:00,
2013-06-24 15:20:00,52.0,52.0,29.91,SE,131,0.0,0.0,99,-99.99,,,-99.99,35.000000,,2013-06-24 22:20:00,
2013-06-24 16:11:00,52.0,52.0,29.91,SE,131,0.0,0.0,99,-99.99,,,-99.99,35.000000,,2013-06-24 23:11:00,
2013-06-24 16:34:00,52.0,52.0,29.91,SE,130,0.0,0.0,99,-99.99,,,-99.99,64.000000,,2013-06-24 23:34:00,
2013-06-24 16:40:00,52.0,52.0,29.90,SE,129,0.0,0.0,99,-99.99,,,-99.99,37.000000,,2013-06-24 23:40:00,
2013-06-24 16:53:00,52.0,52.0,29.91,SE,129,0.0,0.0,99,-99.99,,,-99.99,66.000000,,2013-06-24 23:53:00,
2013-06-24 17:02:00,52.0,52.0,29.90,SE,129,0.0,0.0,99,-99.99,,,-99.99,54.000000,,2013-06-25 00:02:00,
2013-06-24 17:10:00,52.0,52.0,29.90,SE,125,0.0,0.0,99,-99.99,,,-99.99,22.000000,,2013-06-25 00:10:00,
2013-06-24 17:12:00,52.0,52.0,29.90,SE,129,0.0,0.0,99,-99.99,,,-99.99,45.000000,,2013-06-25 00:12:00,
2013-06-24 17:22:00,52.0,52.0,29.90,SE,129,0.0,0.0,99,-99.99,,,-99.99,53.000000,,2013-06-25 00:22:00,
2013-06-24 17:33:00,52.0,52.0,29.90,SE,129,0.0,0.0,99,-99.99,,,-99.99,37.000000,,2013-06-25 00:33:00,
2013-06-24 17:40:00,52.0,52.0,29.90,SE,125,0.0,0.0,99,-99.99,,,-99.99,19.000000,,2013-06-25 00:40:00,
2013-06-24 18:00:00,51.0,51.0,29.89,SE,127,0.0,0.0,99,-99.99,,,-99.99,13.000000,,2013-06-25 01:00:00,
2013-06-24 18:03:00,52.0,52.0,29.90,SE,125,0.0,0.0,99,-99.99,,,-99.99,22.000000,,2013-06-25 01:03:00,
2013-06-24 18:34:00,52.0,52.0,29.90,SE,125,0.0,0.0,99,-99.99,,,-99.99,19.000000,,2013-06-25 01:34:00,
2013-06-24 18:54:00,51.0,51.0,29.89,SE,127,0.0,0.0,99,-99.99,,,-99.99,13.000000,,2013-06-25 01:54:00,
2013-06-24 19:24:00,51.0,51.0,29.89,SE,129,0.0,0.0,99,-99.99,,,-99.99,10.000000,,2013-06-25 02:24:00,
2013-06-24 19:35:00,51.0,51.0,29.89,SE,130,0.0,0.0,99,-99.99,,,-99.99,7.000000,,2013-06-25 02:35:00,
2013-06-24 19:50:00,51.0,51.0,29.89,SE,138,0.0,0.0,99,-99.99,,,-99.99,2.000000,,2013-06-25 02:50:00,
2013-06-24 19:54:00,51.0,51.0,29.90,SE,132,0.0,0.0,99,-99.99,,,-99.99,7.000000,,2013-06-25 02:54:00,
2013-06-24 20:04:00,51.0,51.0,29.90,SE,132,0.0,0.0,99,-99.99,,,-99.99,6.000000,,2013-06-25 03:04:00,
2013-06-24 20:12:00,51.0,51.0,29.89,SE,132,0.0,0.0,99,-99.99,,,-99.99,5.000000,,2013-06-25 03:12:00,
2013-06-24 20:30:00,51.0,51.0,29.88,SE,133,0.0,0.0,99,-99.99,,,-99.99,1.000000,,2013-06-25 03:30:00,
2013-06-24 20:48:00,51.0,51.0,29.89,SE,138,0.0,0.0,99,-99.99,,,-99.99,2.000000,,2013-06-25 03:48:00,
2013-06-24 21:20:00,52.0,52.0,29.88,SE,132,0.0,0.0,99,-99.99,,,-99.99,0.000000,,2013-06-25 04:20:00,
2013-06-24 21:22:00,51.0,51.0,29.88,SE,133,0.0,0.0,99,-99.99,,,-99.99,1.000000,,2013-06-25 04:22:00,
2013-06-24 21:52:00,52.0,52.0,29.88,SE,132,0.0,0.0,99,-99.99,,,-99.99,0.000000,,2013-06-25 04:52:00,
2013-06-24 22:01:00,52.0,52.0,29.88,SE,132,0.0,0.0,99,-99.99,,,-99.99,0.000000,,2013-06-25 05:01:00,
2013-06-24 22:10:00,52.0,52.0,29.89,SE,137,0.0,0.0,99,-99.99,,,-99.99,0.000000,,2013-06-25 05:10:00,
2013-06-24 22:52:00,52.0,52.0,29.89,SE,137,0.0,0.0,99,-99.99,,,-99.99,0.000000,,2013-06-25 05:52:00,
2013-06-24 23:00:00,51.0,51.0,29.89,SE,139,0.0,0.0,99,-99.99,,,-99.99,0.000000,,2013-06-25 06:00:00,
2013-06-24 23:01:00,52.0,52.0,29.89,SE,137,0.0,0.0,99,-99.99,,,-99.99,0.000000,,2013-06-25 06:01:00,
2013-06-24 23:43:00,51.0,51.0,29.89,SE,139,0.0,0.0,99,-99.99,,,-99.99,0.000000,,2013-06-25 06:43:00,
2013-06-24 23:52:00,51.0,51.0,29.89,SE,139,0.0,0.0,99,-99.99,,,-99.99,0.000000,,2013-06-25 06:52:00,